Location: Tucson
(32.2217°N, 110.9265°W)
Time: 06:40:31
(UTC-07:00)

ISS - Visible Passes

Search period start: 06 October 2022 00:00
Search period end: 16 October 2022 00:00
Orbit: 415 x 419 km, 51.6° (Epoch: 06 October)

Date Brightness Start Highest point End Pass type
(mag) Time Alt. Az. Time Alt. Az. Time Alt. Az.
06 Oct -3.6 18:30:59 10° NW 18:34:18 56° NE 18:37:35 10° ESE visible
07 Oct -1.1 19:20:12 10° W 19:22:38 19° SW 19:25:03 10° S visible
08 Oct -2.2 18:31:26 10° WNW 18:34:33 36° SW 18:37:38 10° SSE visible
10 Oct -0.2 18:33:54 10° WSW 18:34:28 10° SW 18:35:02 10° SW visible
